Weather History for Flagstaff, AZ

Change the Weather History Date:

Sunday, March 4, 2012

  Actual Average Record
Temperature  
Mean Temperature 35 °F 35 °F  
Max Temperature 54 °F 48 °F 68 °F (1910)
Min Temperature 16 °F 22 °F -16 °F (1966)
Degree Days  
Heating Degree Days 30 30  
Month to date heating degree days 133 121  
Since 1 July heating degree days 4823 4960  
Cooling Degree Days 0 0  
Month to date cooling degree days 0 0  
Year to date cooling degree days 0 0  
Moisture  
Dew Point 14 °F    
Average Humidity 54    
Maximum Humidity 88    
Minimum Humidity 19    
Precipitation  
Precipitation 0.00 in 0.08 in 1.14 in (1908)
Month to date precipitation 0.00 0.31  
Year to date precipitation 1.41 4.52  
Snow  
Snow 0.00 in 0.80 in 11.00 in (1923)
Month to date snowfall 0.0 3.0  
Since 1 July snowfall 66.1 76.2  
Snow Depth 0.00 in    
Sea Level Pressure  
Sea Level Pressure 30.29 in    
Wind  
Wind Speed 5 mph (East)    
Max Wind Speed 17 mph    
Max Gust Speed 23 mph    
Visibility 10 miles    
Events      
T = Trace of Precipitation, MM = Missing Value Source: NWS Daily Summary

Daily Weather History Graph

Daily Weather History Graph

Search for Another Location

Airport:

Trip Planner

Search our weather history database for the weather conditions in past years. The results will help you decide how hot, cold, wet, or windy it might be!

Date:

Astronomy

Mar. 04, 2012 Rise Set
Actual Time 6:51 AM MST 6:25 PM MST
Civil Twilight 6:26 AM MST 6:50 PM MST
Nautical Twilight 5:56 AM MST 7:20 PM MST
Astronomical Twilight 5:27 AM MST 7:49 PM MST
Moon 2:48 PM MST (3/4) 4:06 AM MST (3/4)
Length of Visible Light 12h 24m
Length of Day
11h 33m
Waxing Gibbous, 84% of the Moon is Illuminated
Mar 4
Waxing Gibbous
Mar 8
Full
Mar 14
Last Quarter
Mar 22
New
Mar 30
First Quarter

Hourly Weather History & Observations

Time (MST) Temp. Windchill Dew Point Humidity Pressure Visibility Wind Dir Wind Speed Gust Speed Precip Events Conditions
12:57 AM 21.0 °F - 12.9 °F 71% 30.34 in 10.0 mi Calm Calm - N/A   Clear
1:57 AM 19.9 °F - 12.9 °F 74% 30.33 in 10.0 mi Calm Calm - N/A   Clear
2:57 AM 19.0 °F - 12.0 °F 74% 30.32 in 10.0 mi Calm Calm - N/A   Clear
3:57 AM 18.0 °F - 12.0 °F 78% 30.30 in 10.0 mi Calm Calm - N/A   Clear
4:57 AM 17.1 °F - 12.0 °F 81% 30.32 in 10.0 mi Calm Calm - N/A   Clear
5:57 AM 16.0 °F - 12.0 °F 84% 30.34 in 10.0 mi Calm Calm - N/A   Clear
6:57 AM 16.0 °F - 12.0 °F 84% 30.40 in 10.0 mi Calm Calm - N/A   Clear
7:57 AM 24.1 °F - 17.1 °F 75% 30.40 in 10.0 mi Calm Calm - N/A   Clear
8:57 AM 37.0 °F 30.4 °F 18.0 °F 46% 30.34 in 10.0 mi East 9.2 mph - N/A   Clear
9:57 AM 43.0 °F 36.4 °F 19.0 °F 38% 30.31 in 10.0 mi East 12.7 mph - N/A   Clear
10:57 AM 46.9 °F - 19.0 °F 33% 30.30 in 10.0 mi East 13.8 mph 19.6 mph N/A   Clear
11:57 AM 50.0 °F - 17.1 °F 27% 30.29 in 10.0 mi ENE 15.0 mph 20.7 mph N/A   Clear
12:57 PM 51.1 °F - 14.0 °F 23% 30.27 in 10.0 mi East 15.0 mph 21.9 mph N/A   Clear
1:57 PM 52.0 °F - 12.9 °F 21% 30.25 in 10.0 mi East 11.5 mph - N/A   Clear
2:57 PM 54.0 °F - 12.0 °F 19% 30.23 in 10.0 mi East 6.9 mph - N/A   Clear
3:57 PM 54.0 °F - 12.9 °F 20% 30.23 in 10.0 mi ENE 9.2 mph 17.3 mph N/A   Clear
4:57 PM 53.1 °F - 12.0 °F 20% 30.23 in 10.0 mi ENE 10.4 mph - N/A   Clear
5:57 PM 48.9 °F - 12.0 °F 23% 30.26 in 10.0 mi East 6.9 mph - N/A   Clear
6:57 PM 39.0 °F - 12.9 °F 34% 30.30 in 10.0 mi Calm Calm - N/A   Clear
7:57 PM 34.0 °F 31.0 °F 12.9 °F 42% 30.30 in 10.0 mi SW 3.5 mph - N/A   Clear
8:57 PM 28.9 °F - 14.0 °F 54% 30.26 in 10.0 mi Calm Calm - N/A   Clear
9:57 PM 27.0 °F - 14.0 °F 58% 30.25 in 10.0 mi Calm Calm - N/A   Clear
10:57 PM 26.1 °F - 15.1 °F 63% 30.23 in 10.0 mi Calm Calm - N/A   Clear
11:57 PM 26.1 °F - 14.0 °F 60% 30.21 in 10.0 mi Calm Calm - N/A   Clear